Starlink 3270

operational
NORAD ID: 50199 Int'l Des: 2021-125 Owner: SPXS Country: US Constellation: starlink
LEOCIRCULAR

Starlink 3270について

説明を読み込み中...

リアルタイム位置

3D地球を読み込み中...

次回通過

高度履歴

Altitude vs Time

uPlot chart will show altitude changes over time

軌道要素

1 50199U 21125AV 25308.06831698 .00005873 00000-0 38696-3 0 9992
2 50199 53.2163 83.0571 0001251 81.8888 278.2246 15.08824589217764
Epoch: Nov 4, 2025 • Age: 18 hours

現在のステータス

高度 540.1 km
速度 7.60 km/s
衛星直下点 23.49°N, 125.46°E
打ち上げ日 Dec 18, 2021
運用期間 3.8 years
タイプ internet

技術仕様

分類 Payload
質量 290.00 kg
乾燥質量 270.00 kg
総質量 290.00 kg
長さ 0.20 m
直径 2.80 m
スパン 9.00 m
形状 Box + pan
製造者 SPXS
バスタイプ Starlink
フェーズステータス In Orbit
所有者/国 SPXS/US

大規模コンステレーション

Loading constellations...